Change the Weather History Date:

Sunday, August 31, 2014

  Actual Average (KMGW) Record (KMGW)
Temperature  
Mean Temperature 66 °F 70 °F  
Max Temperature 71 °F 81 °F 99 °F (1953)
Min Temperature 62 °F 60 °F 46 °F (1976)
Degree Days  
Heating Degree Days 0 1  
Month to date heating degree days 2  
Since 1 June heating degree days 42  
Since 1 July heating degree days 11  
Cooling Degree Days 2 6  
Month to date cooling degree days 225  
Year to date cooling degree days 709  
Since 1 June cooling degree days 642  
Growing Degree Days 16 (Base 50)    
Moisture  
Dew Point 68 °F    
Average Humidity 98    
Maximum Humidity 100    
Minimum Humidity 88    
Precipitation  
Precipitation 0.00 in 0.11 in 2.41 in (1975)
Month to date precipitation 3.55  
Year to date precipitation 29.47  
Sea Level Pressure  
Sea Level Pressure 30.17 in    
Wind  
Wind Speed 8 mph (SW)    
Max Wind Speed 14 mph    
Max Gust Speed 22 mph    
Visibility 9 miles    
Events      
T = Trace of Precipitation, MM = Missing Value Source: NWS Daily Summary

Daily Weather History Graph

Daily Weather History Graph

Search for Another Location

Airport or City:

Trip Planner

Search our weather history database for the weather conditions in past years. The results will help you decide how hot, cold, wet, or windy it might be!

Date:

Astronomy

Aug. 31, 2014 Rise Set
Actual Time 6:44 AM EDT 7:49 PM EDT
Civil Twilight 6:16 AM EDT 8:17 PM EDT
Nautical Twilight 5:43 AM EDT 8:50 PM EDT
Astronomical Twilight 5:09 AM EDT 9:24 PM EDT
Moon 12:28 PM EDT (8/31) 11:05 PM EDT (8/31)
Length of Visible Light 14h 00m
Length of Day
13h 05m
Waxing Crescent, 32% of the Moon is Illuminated
Aug 31
Waxing Crescent
Sep 2
First Quarter
Sep 8
Full
Sep 15
Last Quarter
Sep 24
New

Hourly Weather History & Observations

Time (EDT) Temp. Dew Point Humidity Pressure Visibility Wind Dir Wind Speed Gust Speed Precip Events Conditions
12:00 AM 64.4 °F - N/A% 30.20 in - South 8.1 mph - N/A   Unknown
12:20 AM 64.4 °F - N/A% 30.20 in - South 6.9 mph - N/A   Unknown
12:40 AM 64.4 °F - N/A% 30.20 in - South 6.9 mph - N/A   Unknown
1:00 AM 66.2 °F - N/A% 30.20 in - South 6.9 mph - N/A   Unknown
1:20 AM 66.2 °F - N/A% 30.20 in - SSW 8.1 mph - N/A   Unknown
1:40 AM 66.2 °F - N/A% 30.20 in - SSW 9.2 mph - N/A   Unknown
2:00 AM 66.2 °F - N/A% 30.20 in - SSW 10.4 mph - N/A   Unknown
2:20 AM 68.0 °F - N/A% 30.19 in - South 9.2 mph - N/A   Unknown
2:40 AM 66.2 °F - N/A% 30.19 in - SSW 9.2 mph - N/A   Unknown
3:00 AM 66.2 °F - N/A% 30.19 in - SSW 9.2 mph - N/A   Unknown
3:20 AM 68.0 °F - N/A% 30.18 in 10.0 mi SSW 9.2 mph - N/A   Clear
3:40 AM 66.2 °F - N/A% 30.18 in 10.0 mi SSW 9.2 mph - N/A   Clear
4:00 AM 66.2 °F - N/A% 30.17 in 10.0 mi SSW 9.2 mph - N/A   Scattered Clouds
4:20 AM 66.2 °F - N/A% 30.17 in 10.0 mi SSW 10.4 mph - N/A   Scattered Clouds
4:40 AM 66.2 °F - N/A% 30.17 in 10.0 mi SSW 10.4 mph - N/A   Scattered Clouds
5:00 AM 68.0 °F - N/A% 30.18 in 10.0 mi SSW 10.4 mph - N/A   Scattered Clouds
5:20 AM 66.2 °F 66.2 °F 100% 30.18 in 10.0 mi SW 8.1 mph - N/A   Mostly Cloudy
5:40 AM 66.2 °F 66.2 °F 100% 30.19 in 10.0 mi SW 5.8 mph - N/A   Mostly Cloudy
6:00 AM 68.0 °F 68.0 °F 100% 30.19 in 10.0 mi SW 4.6 mph - N/A   Overcast
6:20 AM 68.0 °F 68.0 °F 100% 30.19 in 10.0 mi WSW 6.9 mph - N/A   Overcast
6:40 AM 68.0 °F 68.0 °F 100% 30.20 in - SW 5.8 mph - N/A   Unknown
7:00 AM 68.0 °F 68.0 °F 100% 30.20 in 10.0 mi SW 6.9 mph - N/A   Overcast
7:20 AM 66.2 °F 66.2 °F 100% 30.21 in 1.8 mi SW 8.1 mph - N/A   Overcast
8:00 AM 62.6 °F - N/A% 30.20 in 7.0 mi SW 10.4 mph 17.3 mph N/A   Overcast
8:20 AM 62.6 °F - N/A% 30.19 in 10.0 mi SW 10.4 mph - N/A   Mostly Cloudy
8:40 AM 62.6 °F - N/A% 30.19 in 10.0 mi SW 5.8 mph - N/A   Mostly Cloudy
9:00 AM 64.4 °F - N/A% 30.18 in 10.0 mi WSW 5.8 mph - N/A   Scattered Clouds
9:20 AM 64.4 °F - N/A% 30.18 in 10.0 mi SW 6.9 mph - N/A   Mostly Cloudy
9:40 AM 64.4 °F - N/A% 30.18 in 10.0 mi SSW 4.6 mph - N/A   Scattered Clouds
10:00 AM 64.4 °F - N/A% 30.18 in 10.0 mi South 8.1 mph - N/A   Clear
10:20 AM 66.2 °F - N/A% 30.18 in 10.0 mi South 6.9 mph - N/A   Clear
11:00 AM 68.0 °F - N/A% 30.18 in 10.0 mi SW 8.1 mph 17.3 mph N/A   Mostly Cloudy
11:20 AM 68.0 °F - N/A% 30.19 in 10.0 mi WSW 9.2 mph 16.1 mph N/A   Overcast
11:40 AM 68.0 °F - N/A% 30.19 in 10.0 mi WSW 8.1 mph - N/A   Overcast
12:20 PM 68.0 °F - N/A% 30.19 in 10.0 mi West 5.8 mph - N/A   Overcast
12:40 PM 68.0 °F - N/A% 30.19 in 10.0 mi WSW 9.2 mph - N/A   Overcast
1:00 PM 68.0 °F - N/A% 30.19 in 10.0 mi WSW 8.1 mph - N/A   Overcast
1:20 PM 68.0 °F - N/A% 30.19 in 10.0 mi WSW 6.9 mph - N/A   Overcast
2:05 PM 68.0 °F - N/A% 30.18 in 10.0 mi SW 4.6 mph - N/A   Overcast
2:25 PM 69.8 °F - N/A% 30.18 in 10.0 mi SW 6.9 mph - N/A   Mostly Cloudy
2:45 PM 69.8 °F 69.8 °F 100% 30.18 in 10.0 mi SW 8.1 mph - N/A   Mostly Cloudy
3:05 PM 69.8 °F 69.8 °F 100% 30.17 in 10.0 mi SW 8.1 mph 17.3 mph N/A   Overcast
3:25 PM 69.8 °F 69.8 °F 100% 30.16 in 10.0 mi SW 9.2 mph - N/A   Overcast
3:45 PM 69.8 °F 69.8 °F 100% 30.15 in 10.0 mi SW 8.1 mph - N/A   Overcast
4:05 PM 71.6 °F 68.0 °F 88% 30.14 in 10.0 mi SW 13.8 mph 21.9 mph N/A   Mostly Cloudy
4:45 PM 69.8 °F 68.0 °F 94% 30.14 in 10.0 mi WSW 8.1 mph - N/A   Overcast
5:05 PM 69.8 °F 68.0 °F 94% 30.14 in 10.0 mi WSW 9.2 mph 20.7 mph N/A   Mostly Cloudy
5:25 PM 69.8 °F 68.0 °F 94% 30.14 in 10.0 mi WSW 8.1 mph 19.6 mph N/A   Overcast
5:45 PM 69.8 °F 69.8 °F 100% 30.13 in 10.0 mi WSW 6.9 mph - N/A   Mostly Cloudy
6:05 PM 69.8 °F 69.8 °F 100% 30.14 in 10.0 mi SW 6.9 mph - N/A   Mostly Cloudy
6:25 PM 68.0 °F 68.0 °F 100% 30.14 in 4.0 mi SW 11.5 mph 17.3 mph N/A   Overcast
6:45 PM 64.4 °F - N/A% 30.14 in 10.0 mi SW 6.9 mph 17.3 mph N/A   Overcast
7:05 PM 64.4 °F - N/A% 30.14 in 10.0 mi WSW 8.1 mph - N/A   Overcast
7:25 PM 64.4 °F - N/A% 30.15 in 10.0 mi SW 9.2 mph - N/A   Overcast
7:45 PM 64.4 °F - N/A% 30.15 in 10.0 mi SW 9.2 mph 17.3 mph N/A   Overcast
8:05 PM 64.4 °F - N/A% 30.15 in 10.0 mi SW 8.1 mph - N/A   Overcast
8:25 PM 64.4 °F - N/A% 30.16 in 7.0 mi SSW 9.2 mph - N/A   Overcast
8:45 PM 64.4 °F - N/A% 30.16 in 5.0 mi SW 8.1 mph - N/A   Haze
9:05 PM 64.4 °F - N/A% 30.15 in 10.0 mi SW 6.9 mph - N/A   Overcast
9:45 PM 64.4 °F - N/A% 30.15 in 10.0 mi WSW 6.9 mph - N/A   Mostly Cloudy
10:05 PM 64.4 °F - N/A% 30.16 in 10.0 mi WSW 6.9 mph - N/A   Overcast
10:25 PM 64.4 °F - N/A% 30.16 in 10.0 mi WSW 5.8 mph - N/A   Overcast
10:45 PM 64.4 °F - N/A% 30.15 in 7.0 mi WSW 5.8 mph - N/A   Overcast
11:05 PM 64.4 °F - N/A% 30.15 in 7.0 mi WSW 5.8 mph - N/A   Overcast
11:45 PM 64.4 °F - N/A% 30.15 in 10.0 mi WSW 5.8 mph - N/A   Overcast